SCP
0 0 0 0 0 0 0 0 0 0 0 0 0 0 0 0 0 0 0 0 0 0 0 0 0 0 0 0 0 0 0 0 0 0 0 0 0 0
0 0 0 0 0 0 0 0 0 0 0 0 0 0 0 0 0 0 0 0 0 0 0 0 0 0 0 0 0 0 0 0 0 0 0 0 0 0
0 0 0 0 0 0 0 0 0 0 0 0 0 0 0 0 0 0 0 0 0 0 0 0 0 0 0 0 0 0 0 0 0 0 0 0 0 0
0 0 0 0 0 0 0 0 0 0 0 0 0 0 0 0 0 0 0 0 0 0 0 0 0 0 0 0 0 0 0 0 0 0 0 0 0 0
0 0 0 0 0 0 0 0 0 0 0 0 0 0 0 0 0 0 0 0 0 0 0 0 0 0 0 0 0 0 0 0 0 0 0 0 0 0
0 0 0 0 0 0 0 0 0 0 0 0 0 0 0 0 0 0 0 0 0 0 0 0 0 0 0 0 0 0 0 0 0 0 0 0 0 0
0 0 0 0 0 0 0 0 0 0 0 0 0 0 0 0 0 0 0 0 0 0 0 0 0 0 0 0 0 0 0 0 0 0 0 0 0 0
0 0 0 0 0 0 0 0 0 0 0 0 0 0 0 0 0 0 0 0 0 0 0 0 0 0 0 0 0 0 0 0 0 0 0 0 0 0
0 0 0 0 0 0 0 0 0 0 0 0 0 0 0 0 0 0 0 0 0 0 0 0 0 0 0 0 0 0 0 0 0 0 0 0 0 0
0 0 0 0 0 0 0 0 0 0 0 0 0 0 0 0 0 0 0 0 0 0 0 0 0 0 0 0 0 0 0 0 0 0 0 0 0 0
0 0 0 0 0 0 0 0 0 0 0 0 0 0 0 0 0 0 0 0 0 0 0 0 0 0 0 0 0 0 0 0 0 0 0 0 0 0
0 0 0 0 0 0 0 0 0 0 0 0 0 0 0 0 0 0 0 0 0 0 0 0 0 0 0 0 0 0 0 0 0 0 0 0 0 0
0 0 0 0 0 0 0 0 0 0 0 0 0 0 0 0 0 0 0 0 0 0 0 0 0 0 0 0 0 0 0 0 0 0 0 0 0 0
0 0 0 0 0 0 0 0 0 0 0 0 0 0 0 0 0 0 0 0 0 0 0 0 0 0 0 0 0 0 0 0 0 0 0 0 0 0
0 0 0 0 0 0 0 0 0 0 0 0 0 0 0 0 0 0 0 0 0 0 0 0 0 0 0 0 0 0 0 0 0 0 0 0 0 0
0 0 0 0 0 0 0 0 0 0 0 0 0 0 0 0 0 0 0 0 0 0 0 0 0 0 0 0 0 0 0 0 0 0 0 0 0 0
0 0 0 0 0 0 0 0 0 0 0 0 0 0 0 0 0 0 0 0 0 0 0 0 0 0 0 0 0 0 0 0 0 0 0 0 0 0
0 0 0 0 0 0 0 0 0 0 0 0 0 0 0 0 0 0 0 0 0 0 0 0 0 0 0 0 0 0 0 0 0 0 0 0 0 0
0 0 0 0 -0 0 0 0 0 0 0 0 0 0 0 0 0 0 0 0 0 0 0 0 0 0 0 0 0 0 0 0 0 0 0 0 0 0
0 0 0 0 -0 -0 0 0 0 0 0 0 0 0 0 0 0 0 0 0 0 0 0 0 0 0 0 0 0 0 0 0 0 0 0 0 0 0
0 0 -0 -0 -0 -0 -0 0 0 0 0 0 0 0 0 0 0 0 0 0 0 0 0 0 0 0 0 0 0 0 0 0 0 0 0 0 0 0
-0 -0 -0 -0 -0 -0 -0 -0 -0 -0 -0 0 0 0 0 0 0 0 0 0 0 0 0 0 0 0 0 0 0 0 0 0 0 0 0 0 0 0
-0 -0 -0 -0 -0 -0 -0 -0 -0 -0 -0 0 0 0 0 0 0 0 0 0 0 0 0 0 0 0 0 0 0 0 0 0 0 0 0 0 0 0
Wind_Speed
3 3 3 2 2 2 2 2 3 2 3 2 1 1 1 1 2 2 2 4 5 5 5 5 5 6 6 7 7 7 8 8 8 8 9 9 9 10
2 2 3 2 2 2 3 2 3 3 3 2 2 2 1 1 2 2 2 4 5 5 4 4 5 6 6 7 7 8 8 8 8 8 9 9 9 10
2 2 3 2 2 2 2 2 2 2 4 2 1 1 1 1 2 2 2 2 2 4 4 5 5 6 6 6 7 7 7 8 8 9 9 9 10 10
2 2 3 2 3 2 2 2 2 2 3 4 2 1 2 2 2 2 2 2 2 4 5 5 5 6 5 6 6 6 7 8 8 9 9 9 10 11
2 2 2 2 2 2 2 2 2 2 2 2 2 1 1 1 1 2 2 2 2 3 4 5 5 5 5 6 6 6 7 7 7 8 8 9 10 11
1 2 2 2 3 3 3 3 2 1 1 1 2 2 1 1 0 1 2 2 2 2 3 4 5 5 6 7 7 7 7 7 7 8 8 9 9 10
1 1 2 2 3 2 2 2 2 2 2 2 2 2 1 1 2 1 2 2 3 1 2 2 3 2 3 5 6 7 7 7 8 8 8 9 9 10
1 1 2 1 3 3 2 2 3 3 3 3 3 3 3 2 2 2 2 2 3 1 1 3 2 3 3 2 6 7 8 8 8 8 8 8 9 10
1 1 2 2 2 2 2 1 1 2 3 3 4 4 3 3 2 2 2 3 4 2 1 3 1 3 3 3 7 8 8 7 8 8 8 8 9 9
2 2 2 2 2 2 1 1 1 1 1 2 3 3 2 2 2 3 3 3 2 1 1 2 2 3 3 3 6 7 7 8 8 8 8 8 9 9
2 2 2 2 4 3 1 1 1 1 2 2 2 2 2 2 1 0 0 1 2 2 0 1 2 3 3 3 4 7 7 8 8 8 8 8 8 8
2 2 3 4 4 3 1 1 1 2 1 2 2 2 1 1 1 1 1 2 2 2 1 1 1 1 3 2 3 3 4 6 8 8 8 8 8 5
1 2 2 5 4 4 2 1 2 2 1 1 1 1 1 1 1 1 1 2 2 3 1 1 1 1 2 3 3 3 3 3 3 4 6 8 8 5
1 2 2 4 4 4 3 3 4 2 0 0 1 1 1 1 1 1 1 1 2 3 2 2 2 2 2 3 4 3 3 3 2 3 3 5 6 7
1 3 3 4 3 3 4 5 3 1 1 0 1 2 1 1 1 1 1 1 2 2 2 2 2 3 3 4 4 3 3 3 2 2 3 3 3 3
2 2 3 3 3 3 3 3 2 2 1 1 1 1 1 1 1 1 1 2 2 3 2 2 2 3 3 4 4 4 3 3 2 2 3 3 3 3
1 1 1 1 2 2 2 2 2 2 2 1 1 1 2 2 2 1 1 1 1 3 3 3 2 2 3 3 3 4 3 3 3 3 2 3 3 3
1 0 0 0 1 1 2 2 2 2 2 2 2 2 2 2 2 2 1 1 2 3 3 2 2 2 2 3 5 5 4 4 3 2 2 3 5 4
1 1 1 1 1 1 2 2 2 2 2 2 2 2 2 2 2 2 2 2 3 3 3 2 1 1 3 4 4 4 3 3 3 2 2 3 4 5
0 1 2 2 2 2 2 2 2 2 2 2 2 2 2 2 3 3 2 3 3 3 3 2 2 3 4 4 3 4 5 4 3 3 3 3 4 6
1 2 2 2 2 2 2 2 3 3 2 2 2 3 3 2 3 3 3 4 3 3 4 4 4 4 3 1 3 3 3 5 4 3 3 3 4 3
2 2 2 2 2 2 2 2 2 3 3 3 3 3 3 3 3 4 3 3 3 4 5 4 3 1 2 3 5 5 4 4 5 7 7 5 3 3
3 3 2 2 2 2 2 3 3 3 3 3 3 3 3 3 3 3 3 3 3 4 4 4 3 2 2 3 4 4 5 5 4 4 4 7 9 10
Wind_Direction
225 216 212 216 210 206 196 194 197 231 245 234 249 277 284 289 310 309 302 309 304 301 300 303 302 299 296 293 291 290 289 290 291 291 291 291 291 292
225 223 224 213 210 206 206 209 213 214 236 229 234 272 274 298 312 306 299 308 305 303 306 306 305 302 300 298 295 292 291 291 292 293 292 292 294 294
238 228 241 222 207 211 207 203 208 209 238 260 236 263 251 271 299 300 296 290 288 297 299 304 303 302 304 300 299 300 301 298 295 294 293 294 297 298
244 229 237 233 215 209 208 212 213 214 214 248 270 259 260 253 270 286 307 312 296 300 303 303 298 296 303 304 305 304 306 307 307 304 301 300 299 300
257 244 238 227 230 217 213 216 220 228 224 230 260 276 271 281 304 307 311 310 308 303 301 297 295 298 304 303 303 304 305 304 306 307 306 303 301 301
296 281 260 239 244 223 214 217 210 213 214 226 249 263 264 280 281 295 308 305 301 305 298 303 303 302 304 305 304 303 300 298 300 302 302 301 301 301
312 307 309 295 288 255 225 215 204 209 215 223 241 251 254 249 258 260 277 300 294 292 308 303 297 293 296 300 301 300 296 296 298 300 300 300 301 300
304 324 322 311 311 288 269 238 218 214 219 226 241 245 249 245 263 264 281 306 291 287 296 291 274 274 280 279 298 298 298 301 301 301 300 300 300 300
329 331 334 331 313 294 287 277 253 255 235 230 242 250 250 240 236 257 257 263 267 278 281 280 278 277 285 291 297 297 300 302 305 307 307 307 306 303
352 344 324 322 325 335 311 307 291 271 271 246 245 261 262 256 234 241 242 266 280 286 280 270 285 285 301 294 298 295 300 306 310 311 310 309 307 306
353 356 339 335 333 356 18 322 317 308 319 302 281 276 282 284 270 151 172 255 274 265 246 259 285 298 298 292 299 308 311 313 313 313 311 308 309 311
338 339 331 337 341 358 11 327 292 302 331 334 333 332 320 323 326 194 199 229 262 269 232 242 270 314 302 296 307 311 310 308 309 309 309 312 316 318
316 322 321 333 337 342 342 310 292 306 300 294 297 311 335 349 331 308 254 224 239 253 235 219 247 257 261 290 300 300 300 303 308 304 305 309 312 315
297 310 318 334 342 346 347 345 340 339 355 331 320 316 320 318 311 303 296 284 273 263 248 224 237 240 251 270 279 293 302 302 303 304 305 310 311 311
314 325 333 344 353 357 353 354 354 1 43 359 298 298 304 300 315 325 326 314 308 303 285 262 246 248 244 251 266 276 293 300 301 304 318 320 314 313
338 332 336 351 12 13 2 359 358 353 335 297 303 305 319 325 317 318 307 313 314 307 302 284 263 246 254 259 260 271 274 279 298 301 306 306 304 296
0 10 24 19 13 5 359 353 354 356 341 321 306 308 304 299 298 303 287 282 274 291 308 316 306 283 266 263 264 263 267 277 283 292 301 303 296 285
88 109 329 323 306 310 318 326 327 323 312 303 287 276 279 283 289 294 282 258 269 279 285 293 315 326 323 295 245 255 261 266 279 282 273 281 292 291
118 221 248 268 281 287 288 287 290 297 301 297 287 279 275 274 275 278 276 269 270 273 276 275 265 252 278 287 291 249 253 273 277 278 268 258 273 286
230 237 247 251 258 267 272 275 281 292 292 289 290 286 272 268 271 269 265 264 269 274 279 267 248 243 243 260 272 285 276 266 264 270 277 278 277 289
252 246 245 247 254 259 264 268 270 274 277 277 276 277 272 267 267 265 264 266 265 268 271 272 264 260 266 287 280 281 283 277 270 266 267 279 293 300
248 247 248 245 246 250 254 259 266 269 271 270 272 274 274 262 262 267 263 262 262 265 273 281 286 268 234 241 261 275 289 297 296 293 284 267 250 255
247 246 248 249 248 248 247 250 255 263 263 264 269 272 272 272 265 264 267 266 266 268 277 286 285 264 253 249 259 271 280 289 297 298 290 292 283 278